Station Historical Data
Daily Summary for January 7, 2017 Units:  English    Metric   Both
« Previous Day
Next Day »
Daily Weekly Monthly Yearly Custom
  High: Low: Average:
Temperature: 18.2 °F 4.4 °F 11.5 °F
Dew Point: 12.8 °F -0.8 °F 4.5 °F
Humidity: 85% 64% 73%
Wind Speed: 15.0mph 0.0mph 3.2mph
Wind Gust: 20.0mph - -
Wind- - WSW
Pressure: 30.41 in 30.30 in -
Precipitation: 0.00 in    
Historical Graphs
 
 
Tabular Data for January 7, 2017
Time Temperature Dew Point Pressure Wind Wind Speed Wind Gust Humidity Rainfall Rate (Hourly)
00:04 9.6 °F 2.7 °F 30.34 in Calm     73% 0.00 in
00:09 9.8 °F 2.9 °F 30.35 in Calm     73% 0.00 in
00:14 9.8 °F 2.6 °F 30.35 in Calm     72% 0.00 in
00:19 9.8 °F 2.6 °F 30.35 in Calm     72% 0.00 in
00:24 9.8 °F 2.6 °F 30.36 in Calm     72% 0.00 in
00:29 9.7 °F 2.2 °F 30.36 in Calm     71% 0.00 in
00:34 9.7 °F 2.2 °F 30.36 in Calm     71% 0.00 in
00:39 9.6 °F 2.1 °F 30.36 in Calm     71% 0.00 in
00:44 9.4 °F 1.9 °F 30.35 in Calm     71% 0.00 in
00:49 9.3 °F 1.8 °F 30.35 in Calm     71% 0.00 in
00:54 9.3 °F 2.1 °F 30.35 in Calm     72% 0.00 in
00:59 9.1 °F 1.9 °F 30.35 in Calm     72% 0.00 in
01:04 9.1 °F 1.9 °F 30.35 in SW 1.0 mph 4.0 mph 72% 0.00 in
01:09 9.1 °F 1.6 °F 30.35 in SW 1.0 mph 2.0 mph 71% 0.00 in
01:14 9.1 °F 1.6 °F 30.35 in SSW 1.0 mph 3.0 mph 71% 0.00 in
01:19 9.0 °F 1.2 °F 30.35 in SSW 2.0 mph 4.0 mph 70% 0.00 in
01:24 9.1 °F 1.3 °F 30.35 in SW 1.0 mph 4.0 mph 70% 0.00 in
01:29 9.1 °F 1.0 °F 30.35 in WSW 1.0 mph 3.0 mph 69% 0.00 in
01:34 9.1 °F 1.0 °F 30.36 in Calm   3.0 mph 69% 0.00 in
01:39 9.1 °F 1.0 °F 30.36 in Calm     69% 0.00 in
01:44 9.1 °F 1.0 °F 30.35 in Calm     69% 0.00 in
01:49 9.0 °F 0.9 °F 30.36 in Calm     69% 0.00 in
01:54 8.9 °F 0.8 °F 30.36 in Calm     69% 0.00 in
01:59 8.8 °F 1.0 °F 30.36 in Calm   2.0 mph 70% 0.00 in
02:04 8.7 °F 1.2 °F 30.36 in Calm   3.0 mph 71% 0.00 in
02:09 8.6 °F 1.1 °F 30.37 in Calm     71% 0.00 in
02:14 8.6 °F 1.1 °F 30.37 in Calm     71% 0.00 in
02:19 8.5 °F 1.0 °F 30.37 in Calm     71% 0.00 in
02:24 8.5 °F 1.0 °F 30.37 in Calm     71% 0.00 in
02:29 8.4 °F 0.6 °F 30.37 in Calm     70% 0.00 in
02:34 8.3 °F 0.5 °F 30.38 in Calm     70% 0.00 in
02:39 8.1 °F 0.3 °F 30.38 in Calm     70% 0.00 in
02:44 8.0 °F 0.2 °F 30.38 in Calm     70% 0.00 in
02:49 7.7 °F 0.2 °F 30.38 in Calm     71% 0.00 in
02:54 7.5 °F 0.1 °F 30.38 in Calm     71% 0.00 in
02:59 7.3 °F 0.2 °F 30.38 in Calm     72% 0.00 in
03:04 7.1 °F 0.3 °F 30.38 in Calm     73% 0.00 in
03:09 6.9 °F 0.1 °F 30.38 in Calm     73% 0.00 in
03:14 6.7 °F 0.2 °F 30.38 in Calm     74% 0.00 in
03:19 6.7 °F 0.5 °F 30.37 in Calm     75% 0.00 in
03:24 6.5 °F 0.3 °F 30.37 in Calm     75% 0.00 in
03:29 6.5 °F 0.5 °F 30.37 in Calm     76% 0.00 in
03:34 6.4 °F 0.4 °F 30.37 in Calm     76% 0.00 in
03:39 6.3 °F 0.3 °F 30.37 in Calm     76% 0.00 in
03:44 6.3 °F 0.3 °F 30.37 in Calm     76% 0.00 in
03:49 6.2 °F 0.3 °F 30.37 in Calm     76% 0.00 in
03:54 6.1 °F 0.2 °F 30.37 in Calm     76% 0.00 in
03:59 5.9 °F 0.0 °F 30.37 in Calm     76% 0.00 in
04:04 5.7 °F -0.2 °F 30.37 in Calm     76% 0.00 in
04:09 5.5 °F -0.4 °F 30.37 in Calm     76% 0.00 in
04:14 5.4 °F -0.2 °F 30.37 in Calm     77% 0.00 in
04:19 5.3 °F -0.3 °F 30.37 in Calm     77% 0.00 in
04:24 5.1 °F -0.5 °F 30.37 in Calm     77% 0.00 in
04:29 4.9 °F -0.7 °F 30.37 in Calm     77% 0.00 in
04:34 4.8 °F -0.8 °F 30.37 in Calm     77% 0.00 in
04:39 4.6 °F -0.8 °F 30.37 in Calm     78% 0.00 in
04:44 4.5 °F -0.8 °F 30.37 in Calm     78% 0.00 in
04:49 4.4 °F -0.7 °F 30.38 in Calm     79% 0.00 in
04:54 4.4 °F -0.7 °F 30.38 in Calm     79% 0.00 in
04:59 4.4 °F -0.4 °F 30.38 in Calm     80% 0.00 in
05:04 4.5 °F -0.3 °F 30.38 in Calm     80% 0.00 in
05:09 4.7 °F 0.2 °F 30.38 in Calm     81% 0.00 in
05:14 4.8 °F 0.2 °F 30.38 in Calm     81% 0.00 in
05:19 4.9 °F 0.3 °F 30.38 in Calm     81% 0.00 in
05:24 5.0 °F 0.4 °F 30.38 in Calm     81% 0.00 in
05:29 5.1 °F 0.5 °F 30.38 in Calm     81% 0.00 in
05:34 5.3 °F 0.7 °F 30.38 in ESE 1.0 mph 3.0 mph 81% 0.00 in
05:39 5.4 °F 1.1 °F 30.38 in Calm   3.0 mph 82% 0.00 in
05:44 5.6 °F 1.3 °F 30.38 in ESE 1.0 mph 2.0 mph 82% 0.00 in
05:49 5.6 °F 1.3 °F 30.38 in ESE 2.0 mph 3.0 mph 82% 0.00 in
05:54 5.7 °F 1.4 °F 30.38 in SSE 1.0 mph 3.0 mph 82% 0.00 in
05:59 5.7 °F 1.7 °F 30.38 in SSE 1.0 mph 4.0 mph 83% 0.00 in
06:04 5.9 °F 2.1 °F 30.38 in SSW 2.0 mph 3.0 mph 84% 0.00 in
06:09 6.1 °F 2.3 °F 30.39 in Calm   3.0 mph 84% 0.00 in
06:14 6.2 °F 2.4 °F 30.39 in SSW 1.0 mph 3.0 mph 84% 0.00 in
06:19 6.3 °F 2.5 °F 30.39 in South 1.0 mph 2.0 mph 84% 0.00 in
06:24 6.4 °F 2.6 °F 30.39 in Calm   3.0 mph 84% 0.00 in
06:29 6.5 °F 2.7 °F 30.38 in Calm   3.0 mph 84% 0.00 in
06:34 6.6 °F 3.0 °F 30.39 in Calm   2.0 mph 85% 0.00 in
06:39 6.7 °F 3.1 °F 30.38 in Calm   1.0 mph 85% 0.00 in
06:44 6.7 °F 3.1 °F 30.39 in Calm   1.0 mph 85% 0.00 in
06:49 6.7 °F 2.9 °F 30.39 in Calm     84% 0.00 in
06:54 6.8 °F 3.0 °F 30.39 in Calm     84% 0.00 in
06:59 6.9 °F 3.3 °F 30.39 in Calm     85% 0.00 in
07:04 6.9 °F 3.3 °F 30.39 in Calm   3.0 mph 85% 0.00 in
07:09 7.0 °F 3.4 °F 30.39 in SE 1.0 mph 3.0 mph 85% 0.00 in
07:14 7.1 °F 3.5 °F 30.39 in SE 3.0 mph 3.0 mph 85% 0.00 in
07:19 7.2 °F 3.6 °F 30.39 in SE 1.0 mph 3.0 mph 85% 0.00 in
07:24 7.3 °F 3.7 °F 30.39 in SE 2.0 mph 3.0 mph 85% 0.00 in
07:29 7.4 °F 3.8 °F 30.39 in Calm   2.0 mph 85% 0.00 in
07:34 7.4 °F 3.8 °F 30.40 in Calm   2.0 mph 85% 0.00 in
07:39 7.4 °F 3.6 °F 30.40 in Calm   1.0 mph 84% 0.00 in
07:44 7.5 °F 3.7 °F 30.40 in Calm     84% 0.00 in
07:49 7.5 °F 3.7 °F 30.40 in Calm     84% 0.00 in
07:54 7.4 °F 3.6 °F 30.40 in SE 1.0 mph 3.0 mph 84% 0.00 in
07:59 7.5 °F 3.7 °F 30.40 in SE 2.0 mph 3.0 mph 84% 0.00 in
08:04 7.4 °F 3.6 °F 30.40 in Calm   2.0 mph 84% 0.00 in
08:09 7.4 °F 3.6 °F 30.40 in Calm     84% 0.00 in
08:14 7.5 °F 3.7 °F 30.40 in Calm     84% 0.00 in
08:19 7.6 °F 3.8 °F 30.40 in Calm     84% 0.00 in
08:24 7.7 °F 3.9 °F 30.40 in SE 1.0 mph 2.0 mph 84% 0.00 in
08:29 7.8 °F 4.0 °F 30.41 in Calm   3.0 mph 84% 0.00 in
08:34 8.0 °F 4.2 °F 30.41 in SE 1.0 mph 3.0 mph 84% 0.00 in
08:39 8.0 °F 3.9 °F 30.41 in SE 1.0 mph 3.0 mph 83% 0.00 in
08:44 8.1 °F 4.0 °F 30.41 in SE 1.0 mph 3.0 mph 83% 0.00 in
08:49 8.2 °F 4.1 °F 30.41 in SE 1.0 mph 3.0 mph 83% 0.00 in
08:54 8.2 °F 3.8 °F 30.40 in South 3.0 mph 4.0 mph 82% 0.00 in
08:59 8.2 °F 3.8 °F 30.40 in SSE 2.0 mph 4.0 mph 82% 0.00 in
09:04 8.3 °F 3.9 °F 30.40 in SSE 2.0 mph 4.0 mph 82% 0.00 in
09:09 8.3 °F 3.7 °F 30.40 in SSE 1.0 mph 4.0 mph 81% 0.00 in
09:14 8.3 °F 3.7 °F 30.40 in SSE 1.0 mph 3.0 mph 81% 0.00 in
09:19 8.5 °F 3.9 °F 30.41 in ESE 2.0 mph 3.0 mph 81% 0.00 in
09:24 8.6 °F 4.0 °F 30.41 in Calm   4.0 mph 81% 0.00 in
09:29 8.7 °F 4.1 °F 30.41 in South 2.0 mph 3.0 mph 81% 0.00 in
09:34 8.8 °F 4.2 °F 30.41 in South 2.0 mph 5.0 mph 81% 0.00 in
09:39 8.9 °F 4.3 °F 30.41 in South 2.0 mph 5.0 mph 81% 0.00 in
09:44 8.9 °F 4.3 °F 30.41 in South 2.0 mph 5.0 mph 81% 0.00 in
09:49 9.1 °F 4.5 °F 30.41 in Calm   2.0 mph 81% 0.00 in
09:54 9.6 °F 4.9 °F 30.41 in Calm   3.0 mph 81% 0.00 in
09:59 10.1 °F 5.2 °F 30.41 in South 1.0 mph 2.0 mph 80% 0.00 in
10:04 10.6 °F 5.6 °F 30.41 in Calm   2.0 mph 80% 0.00 in
10:09 10.7 °F 5.7 °F 30.41 in South 1.0 mph 2.0 mph 80% 0.00 in
10:14 11.4 °F 6.4 °F 30.40 in Calm     80% 0.00 in
10:19 12.2 °F 6.9 °F 30.41 in Calm     79% 0.00 in
10:24 13.0 °F 7.4 °F 30.41 in Calm     78% 0.00 in
10:29 13.6 °F 7.4 °F 30.41 in SW 1.0 mph 4.0 mph 76% 0.00 in
10:34 13.8 °F 7.3 °F 30.41 in SW 2.0 mph 4.0 mph 75% 0.00 in
10:39 14.2 °F 6.8 °F 30.41 in West 4.0 mph 4.0 mph 72% 0.00 in
10:44 15.1 °F 7.7 °F 30.41 in WSW 2.0 mph 4.0 mph 72% 0.00 in
10:49 15.3 °F 7.6 °F 30.41 in SW 2.0 mph 4.0 mph 71% 0.00 in
10:54 15.3 °F 7.3 °F 30.41 in SW 1.0 mph 4.0 mph 70% 0.00 in
10:59 15.5 °F 7.5 °F 30.40 in South 3.0 mph 4.0 mph 70% 0.00 in
11:04 15.9 °F 7.5 °F 30.40 in SSW 2.0 mph 6.0 mph 69% 0.00 in
11:09 15.7 °F 7.3 °F 30.40 in South 2.0 mph 5.0 mph 69% 0.00 in
11:14 15.9 °F 7.5 °F 30.40 in SW 3.0 mph 6.0 mph 69% 0.00 in
11:19 16.2 °F 7.5 °F 30.40 in SSW 3.0 mph 6.0 mph 68% 0.01 in
11:24 16.4 °F 8.0 °F 30.39 in South 5.0 mph 7.0 mph 69% 0.01 in
11:29 16.4 °F 7.7 °F 30.39 in SSW 4.0 mph 6.0 mph 68% 0.01 in
11:34 16.9 °F 8.5 °F 30.39 in SW 3.0 mph 6.0 mph 69% 0.01 in
11:39 17.0 °F 7.9 °F 30.39 in SW 3.0 mph 6.0 mph 67% 0.01 in
11:44 17.0 °F 8.3 °F 30.38 in WNW 2.0 mph 5.0 mph 68% 0.01 in
11:49 17.0 °F 7.9 °F 30.38 in SW 3.0 mph 8.0 mph 67% 0.01 in
11:54 17.1 °F 8.7 °F 30.38 in South 5.0 mph 6.0 mph 69% 0.01 in
11:59 17.2 °F 8.4 °F 30.38 in SW 4.0 mph 7.0 mph 68% 0.01 in
12:04 17.5 °F 8.7 °F 30.37 in SW 4.0 mph 7.0 mph 68% 0.01 in
12:09 17.6 °F 8.8 °F 30.37 in SW 3.0 mph 6.0 mph 68% 0.01 in
12:14 17.4 °F 8.0 °F 30.36 in SW 3.0 mph 6.0 mph 66% 0.01 in
12:19 17.5 °F 8.4 °F 30.36 in SW 4.0 mph 8.0 mph 67% 0.00 in
12:24 17.7 °F 8.9 °F 30.36 in SSW 7.0 mph 7.0 mph 68% 0.00 in
12:29 17.6 °F 8.8 °F 30.36 in SW 5.0 mph 8.0 mph 68% 0.00 in
12:34 17.5 °F 8.7 °F 30.36 in West 6.0 mph 7.0 mph 68% 0.00 in
12:39 17.6 °F 8.8 °F 30.35 in WSW 4.0 mph 7.0 mph 68% 0.00 in
12:44 18.0 °F 9.5 °F 30.35 in SSW 3.0 mph 7.0 mph 69% 0.00 in
12:49 18.2 °F 9.7 °F 30.35 in SW 6.0 mph 8.0 mph 69% 0.00 in
12:54 18.2 °F 9.7 °F 30.35 in SW 5.0 mph 7.0 mph 69% 0.00 in
12:59 17.9 °F 9.4 °F 30.35 in SW 4.0 mph 11.0 mph 69% 0.00 in
13:04 17.7 °F 9.2 °F 30.34 in SW 5.0 mph 11.0 mph 69% 0.00 in
13:09 17.7 °F 9.2 °F 30.34 in SW 4.0 mph 10.0 mph 69% 0.00 in
13:14 17.3 °F 9.8 °F 30.34 in SW 3.0 mph 7.0 mph 72% 0.00 in
13:19 17.6 °F 10.1 °F 30.34 in SW 3.0 mph 9.0 mph 72% 0.00 in
13:24 17.2 °F 9.7 °F 30.33 in SW 4.0 mph 7.0 mph 72% 0.00 in
13:29 16.9 °F 10.0 °F 30.33 in West 2.0 mph 6.0 mph 74% 0.00 in
13:34 17.0 °F 10.7 °F 30.33 in SW 3.0 mph 6.0 mph 76% 0.00 in
13:39 16.9 °F 10.9 °F 30.33 in SSW 3.0 mph 6.0 mph 77% 0.00 in
13:44 16.7 °F 11.3 °F 30.33 in SSW 4.0 mph 6.0 mph 79% 0.00 in
13:49 16.4 °F 11.3 °F 30.33 in SSW 4.0 mph 6.0 mph 80% 0.00 in
13:54 16.5 °F 12.0 °F 30.33 in SW 3.0 mph 6.0 mph 82% 0.00 in
13:59 16.4 °F 11.9 °F 30.33 in WSW 1.0 mph 4.0 mph 82% 0.00 in
14:04 16.5 °F 12.2 °F 30.33 in WSW 2.0 mph 5.0 mph 83% 0.00 in
14:09 16.8 °F 12.8 °F 30.33 in WSW 2.0 mph 5.0 mph 84% 0.00 in
14:14 16.6 °F 11.8 °F 30.33 in West 2.0 mph 6.0 mph 81% 0.00 in
14:19 16.5 °F 11.7 °F 30.33 in West 3.0 mph 6.0 mph 81% 0.00 in
14:24 16.5 °F 11.7 °F 30.33 in West 3.0 mph 7.0 mph 81% 0.00 in
14:29 16.5 °F 12.0 °F 30.33 in WSW 3.0 mph 6.0 mph 82% 0.00 in
14:34 16.6 °F 12.1 °F 30.33 in WSW 3.0 mph 4.0 mph 82% 0.00 in
14:39 16.7 °F 12.4 °F 30.32 in WSW 3.0 mph 5.0 mph 83% 0.00 in
14:44 16.8 °F 12.8 °F 30.32 in WSW 3.0 mph 5.0 mph 84% 0.00 in
14:49 16.7 °F 12.4 °F 30.32 in WSW 2.0 mph 4.0 mph 83% 0.00 in
14:54 16.7 °F 12.4 °F 30.33 in SW 1.0 mph 5.0 mph 83% 0.00 in
14:59 16.7 °F 12.2 °F 30.32 in SSW 2.0 mph 3.0 mph 82% 0.00 in
15:04 16.8 °F 12.3 °F 30.33 in West 2.0 mph 4.0 mph 82% 0.00 in
15:09 17.0 °F 12.5 °F 30.32 in WSW 3.0 mph 8.0 mph 82% 0.00 in
15:14 17.4 °F 11.1 °F 30.33 in WSW 4.0 mph 11.0 mph 76% 0.00 in
15:19 17.4 °F 10.2 °F 30.33 in SW 4.0 mph 12.0 mph 73% 0.00 in
15:24 17.4 °F 9.9 °F 30.33 in West 8.0 mph 14.0 mph 72% 0.00 in
15:29 17.3 °F 9.2 °F 30.32 in WNW 11.0 mph 14.0 mph 70% 0.00 in
15:34 17.1 °F 9.0 °F 30.32 in West 3.0 mph 13.0 mph 70% 0.00 in
15:39 17.0 °F 9.2 °F 30.32 in West 3.0 mph 10.0 mph 71% 0.00 in
15:44 16.8 °F 9.3 °F 30.32 in WNW 8.0 mph 16.0 mph 72% 0.00 in
15:49 16.6 °F 9.4 °F 30.32 in WNW 7.0 mph 16.0 mph 73% 0.00 in
15:54 16.4 °F 9.6 °F 30.32 in WNW 7.0 mph 15.0 mph 74% 0.00 in
15:59 16.3 °F 9.5 °F 30.33 in West 2.0 mph 10.0 mph 74% 0.00 in
16:04 16.3 °F 8.5 °F 30.33 in West 11.0 mph 16.0 mph 71% 0.00 in
16:09 16.1 °F 8.0 °F 30.33 in West 8.0 mph 14.0 mph 70% 0.00 in
16:14 16.1 °F 7.7 °F 30.33 in West 7.0 mph 14.0 mph 69% 0.00 in
16:19 16.0 °F 7.9 °F 30.33 in West 7.0 mph 13.0 mph 70% 0.00 in
16:24 15.7 °F 8.6 °F 30.33 in West 8.0 mph 13.0 mph 73% 0.00 in
16:29 15.5 °F 8.1 °F 30.33 in WNW 5.0 mph 14.0 mph 72% 0.00 in
16:34 15.2 °F 7.8 °F 30.33 in West 4.0 mph 11.0 mph 72% 0.00 in
16:39 15.2 °F 7.5 °F 30.33 in WNW 5.0 mph 9.0 mph 71% 0.00 in
16:44 15.2 °F 7.2 °F 30.33 in NW 6.0 mph 12.0 mph 70% 0.00 in
16:49 15.0 °F 7.0 °F 30.33 in WNW 6.0 mph 12.0 mph 70% 0.00 in
16:54 15.0 °F 7.0 °F 30.33 in West 6.0 mph 10.0 mph 70% 0.00 in
16:59 14.9 °F 6.6 °F 30.33 in West 6.0 mph 13.0 mph 69% 0.00 in
17:04 14.6 °F 5.6 °F 30.33 in West 5.0 mph 14.0 mph 67% 0.00 in
17:09 14.4 °F 5.8 °F 30.33 in WNW 4.0 mph 13.0 mph 68% 0.00 in
17:14 14.3 °F 5.7 °F 30.33 in West 9.0 mph 11.0 mph 68% 0.00 in
17:19 14.3 °F 5.3 °F 30.33 in WNW 7.0 mph 13.0 mph 67% 0.00 in
17:24 14.1 °F 4.8 °F 30.33 in WNW 7.0 mph 13.0 mph 66% 0.00 in
17:29 13.8 °F 4.5 °F 30.33 in West 7.0 mph 13.0 mph 66% 0.00 in
17:34 13.6 °F 4.3 °F 30.33 in West 8.0 mph 13.0 mph 66% 0.00 in
17:39 13.5 °F 4.2 °F 30.33 in West 10.0 mph 12.0 mph 66% 0.00 in
17:44 13.5 °F 3.9 °F 30.33 in NW 6.0 mph 14.0 mph 65% 0.00 in
17:49 13.4 °F 4.1 °F 30.32 in WNW 7.0 mph 12.0 mph 66% 0.00 in
17:54 13.3 °F 4.1 °F 30.33 in WNW 6.0 mph 14.0 mph 66% 0.00 in
17:59 13.2 °F 4.0 °F 30.32 in WNW 6.0 mph 14.0 mph 66% 0.00 in
18:04 13.1 °F 3.9 °F 30.32 in WNW 6.0 mph 12.0 mph 66% 0.00 in
18:09 13.1 °F 4.2 °F 30.32 in North 3.0 mph 13.0 mph 67% 0.00 in
18:14 13.0 °F 4.4 °F 30.32 in WNW 5.0 mph 10.0 mph 68% 0.00 in
18:19 13.2 °F 4.6 °F 30.33 in WNW 9.0 mph 11.0 mph 68% 0.00 in
18:24 13.5 °F 4.9 °F 30.32 in WNW 5.0 mph 11.0 mph 68% 0.00 in
18:29 13.6 °F 5.0 °F 30.33 in WNW 6.0 mph 14.0 mph 68% 0.00 in
18:34 13.7 °F 5.1 °F 30.33 in WNW 6.0 mph 11.0 mph 68% 0.00 in
18:39 13.7 °F 4.8 °F 30.33 in WNW 6.0 mph 12.0 mph 67% 0.00 in
18:44 13.6 °F 4.3 °F 30.33 in NW 6.0 mph 12.0 mph 66% 0.00 in
18:49 13.5 °F 4.2 °F 30.33 in WNW 6.0 mph 13.0 mph 66% 0.00 in
18:54 13.4 °F 3.8 °F 30.33 in NW 3.0 mph 14.0 mph 65% 0.00 in
18:59 13.2 °F 3.6 °F 30.32 in NW 6.0 mph 16.0 mph 65% 0.00 in
19:04 13.1 °F 3.5 °F 30.32 in NW 7.0 mph 16.0 mph 65% 0.00 in
19:09 13.1 °F 3.9 °F 30.33 in WNW 4.0 mph 10.0 mph 66% 0.00 in
19:14 13.2 °F 4.0 °F 30.33 in WNW 7.0 mph 15.0 mph 66% 0.00 in
19:19 13.2 °F 4.0 °F 30.33 in WNW 6.0 mph 15.0 mph 66% 0.00 in
19:24 13.3 °F 4.4 °F 30.33 in West 10.0 mph 13.0 mph 67% 0.00 in
19:29 13.2 °F 4.3 °F 30.33 in WNW 6.0 mph 12.0 mph 67% 0.00 in
19:34 13.1 °F 4.5 °F 30.33 in WNW 7.0 mph 15.0 mph 68% 0.00 in
19:39 13.1 °F 4.5 °F 30.33 in WNW 7.0 mph 15.0 mph 68% 0.00 in
19:44 12.9 °F 4.3 °F 30.33 in WNW 7.0 mph 19.0 mph 68% 0.00 in
19:49 12.8 °F 4.2 °F 30.33 in WNW 7.0 mph 19.0 mph 68% 0.00 in
19:54 12.7 °F 4.1 °F 30.33 in WNW 8.0 mph 13.0 mph 68% 0.00 in
19:59 12.7 °F 4.4 °F 30.33 in WNW 6.0 mph 13.0 mph 69% 0.00 in
20:04 12.7 °F 4.8 °F 30.34 in WNW 6.0 mph 11.0 mph 70% 0.00 in
20:09 12.8 °F 4.9 °F 30.34 in WSW 7.0 mph 13.0 mph 70% 0.00 in
20:14 12.7 °F 4.8 °F 30.33 in WNW 8.0 mph 10.0 mph 70% 0.00 in
20:19 12.6 °F 4.7 °F 30.33 in WNW 11.0 mph 14.0 mph 70% 0.00 in
20:24 12.7 °F 4.8 °F 30.33 in WNW 14.0 mph 16.0 mph 70% 0.00 in
20:29 12.8 °F 4.9 °F 30.34 in SW 8.0 mph 19.0 mph 70% 0.00 in
20:34 12.8 °F 5.2 °F 30.34 in West 9.0 mph 15.0 mph 71% 0.00 in
20:39 12.7 °F 5.1 °F 30.34 in WNW 8.0 mph 15.0 mph 71% 0.00 in
20:44 12.5 °F 4.6 °F 30.33 in WNW 6.0 mph 13.0 mph 70% 0.00 in
20:49 12.1 °F 3.6 °F 30.34 in WNW 5.0 mph 11.0 mph 68% 0.00 in
20:54 11.9 °F 3.7 °F 30.34 in WNW 5.0 mph 11.0 mph 69% 0.00 in
20:59 11.7 °F 3.5 °F 30.34 in West 5.0 mph 9.0 mph 69% 0.00 in
21:04 11.7 °F 2.2 °F 30.34 in West 6.0 mph 15.0 mph 65% 0.00 in
21:09 11.7 °F 1.9 °F 30.34 in WNW 8.0 mph 14.0 mph 64% 0.00 in
21:14 11.6 °F 1.8 °F 30.34 in WNW 8.0 mph 16.0 mph 64% 0.00 in
21:19 11.3 °F 1.8 °F 30.34 in WNW 6.0 mph 12.0 mph 65% 0.00 in
21:24 11.3 °F 1.8 °F 30.34 in West 4.0 mph 12.0 mph 65% 0.00 in
21:29 11.2 °F 1.4 °F 30.33 in West 2.0 mph 14.0 mph 64% 0.00 in
21:34 11.4 °F 1.6 °F 30.33 in WNW 10.0 mph 13.0 mph 64% 0.00 in
21:39 11.6 °F 1.8 °F 30.33 in West 7.0 mph 12.0 mph 64% 0.00 in
21:44 11.8 °F 2.0 °F 30.33 in West 7.0 mph 16.0 mph 64% 0.00 in
21:49 11.9 °F 2.4 °F 30.33 in West 7.0 mph 16.0 mph 65% 0.00 in
21:54 12.1 °F 2.6 °F 30.33 in West 9.0 mph 16.0 mph 65% 0.00 in
21:59 12.3 °F 2.8 °F 30.33 in West 10.0 mph 18.0 mph 65% 0.00 in
22:04 12.3 °F 2.8 °F 30.33 in West 9.0 mph 20.0 mph 65% 0.00 in
22:09 12.4 °F 2.9 °F 30.33 in West 3.0 mph 13.0 mph 65% 0.00 in
22:14 12.3 °F 3.1 °F 30.33 in West 6.0 mph 11.0 mph 66% 0.00 in
22:19 12.2 °F 3.0 °F 30.33 in West 6.0 mph 15.0 mph 66% 0.00 in
22:24 12.3 °F 3.1 °F 30.33 in WNW 7.0 mph 13.0 mph 66% 0.00 in
22:29 12.3 °F 3.1 °F 30.33 in WSW 15.0 mph 15.0 mph 66% 0.00 in
22:34 12.3 °F 3.1 °F 30.33 in West 7.0 mph 18.0 mph 66% 0.00 in
22:39 12.2 °F 3.0 °F 30.32 in West 3.0 mph 14.0 mph 66% 0.00 in
22:44 12.0 °F 2.8 °F 30.32 in SSW 2.0 mph 13.0 mph 66% 0.00 in
22:49 12.0 °F 2.8 °F 30.32 in West 6.0 mph 15.0 mph 66% 0.00 in
22:54 12.1 °F 2.9 °F 30.31 in West 6.0 mph 15.0 mph 66% 0.00 in
22:59 12.0 °F 2.5 °F 30.31 in West 7.0 mph 13.0 mph 65% 0.00 in
23:04 11.9 °F 2.7 °F 30.31 in West 5.0 mph 14.0 mph 66% 0.00 in
23:09 12.1 °F 2.6 °F 30.31 in WNW 8.0 mph 13.0 mph 65% 0.00 in
23:14 12.1 °F 2.6 °F 30.31 in West 7.0 mph 14.0 mph 65% 0.00 in
23:19 12.1 °F 2.9 °F 30.31 in West 3.0 mph 13.0 mph 66% 0.00 in
23:24 12.1 °F 2.9 °F 30.31 in SW 7.0 mph 11.0 mph 66% 0.00 in
23:29 12.1 °F 2.9 °F 30.31 in West 5.0 mph 11.0 mph 66% 0.00 in
23:34 11.9 °F 2.7 °F 30.31 in West 6.0 mph 12.0 mph 66% 0.00 in
23:39 11.8 °F 2.6 °F 30.31 in WSW 7.0 mph 9.0 mph 66% 0.00 in
23:44 11.8 °F 2.9 °F 30.31 in WSW 4.0 mph 14.0 mph 67% 0.00 in
23:49 11.7 °F 2.8 °F 30.31 in West 5.0 mph 15.0 mph 67% 0.00 in
23:54 11.6 °F 3.1 °F 30.31 in West 4.0 mph 10.0 mph 68% 0.00 in
23:59 11.7 °F 3.2 °F 30.30 in West 3.0 mph 14.0 mph 68% 0.00 in
Buffalo, New York, USA
Compliments of Weather Underground - 2.5 mb